• In Sweden
  • List of Countries
  • For 7 days
  • Water Temperature
  • Satellite Maps
  • Weather Map
  • Weather Widgets
  • user-avatar
    Login

    Hourly Weather Bracknell

    Today, 20 November, Monday

    Time Temperature Precipitation Wind Pressure Humidity
    00:00 +5°C° 0 mm 3 mps 759 mmHg 89%
    01:00 +5°C° 0 mm 3 mps 758 mmHg 90%
    02:00 +6°C° 0 mm 4 mps 757 mmHg 91%
    03:00 +7°C° 0 mm 4 mps 757 mmHg 92%
    04:00 +7°C° 0 mm 5 mps 756 mmHg 92%
    05:00 +8°C° 0 mm 5 mps 756 mmHg 91%
    06:00 +8°C° 0 mm 6 mps 755 mmHg 90%
    07:00 +9°C° 0 mm 6 mps 755 mmHg 89%
    08:00 +9°C° 0 mm 6 mps 755 mmHg 88%
    09:00 +9°C° 0 mm 7 mps 755 mmHg 87%
    10:00 +10°C° 0 mm 7 mps 754 mmHg 87%
    11:00 +10°C° 0 mm 7 mps 754 mmHg 86%
    12:00 +11°C° 0 mm 7 mps 754 mmHg 85%
    13:00 +11°C° 0 mm 7 mps 754 mmHg 86%
    14:00 +11°C° 0 mm 7 mps 753 mmHg 87%
    15:00 +11°C° 0 mm 7 mps 753 mmHg 87%
    16:00 +11°C° 0.1 mm 7 mps 753 mmHg 88%
    17:00 +11°C° 0.1 mm 7 mps 753 mmHg 89%
    18:00 +11°C° 0.1 mm 6 mps 753 mmHg 91%
    19:00 +11°C° 0.1 mm 6 mps 753 mmHg 91%
    20:00 +11°C° 0.1 mm 6 mps 753 mmHg 92%
    21:00 +12°C° 0.1 mm 5 mps 753 mmHg 93%
    22:00 +12°C° 0 mm 5 mps 753 mmHg 93%
    23:00 +12°C° 0 mm 5 mps 753 mmHg 93%

    Tomorrow, 21 November, Tuesday

    Time Temperature Precipitation Wind Pressure Humidity
    00:00 +12°C° 0 mm 5 mps 753 mmHg 93%
    01:00 +12°C° 0 mm 5 mps 753 mmHg 93%
    02:00 +12°C° 0 mm 5 mps 752 mmHg 93%
    03:00 +12°C° 0 mm 5 mps 752 mmHg 92%
    04:00 +10°C° 0 mm 5 mps 752 mmHg 93%
    05:00 +10°C° 0 mm 5 mps 752 mmHg 93%
    06:00 +10°C° 0 mm 4 mps 752 mmHg 94%
    07:00 +11°C° 0 mm 4 mps 752 mmHg 93%
    08:00 +11°C° 0 mm 4 mps 752 mmHg 93%
    09:00 +11°C° 0 mm 4 mps 751 mmHg 93%
    10:00 +10°C° 0 mm 5 mps 751 mmHg 90%
    11:00 +11°C° 0 mm 6 mps 751 mmHg 88%
    12:00 +11°C° 0 mm 6 mps 751 mmHg 85%
    13:00 +11°C° 0 mm 6 mps 750 mmHg 85%
    14:00 +11°C° 0 mm 6 mps 750 mmHg 85%
    15:00 +13°C° 0 mm 6 mps 749 mmHg 85%
    16:00 +11°C° 0 mm 6 mps 749 mmHg 86%
    17:00 +11°C° 0 mm 7 mps 748 mmHg 86%
    18:00 +11°C° 0 mm 7 mps 748 mmHg 87%
    19:00 +11°C° 0 mm 7 mps 748 mmHg 85%
    20:00 +11°C° 0 mm 7 mps 747 mmHg 84%
    21:00 +11°C° 0 mm 8 mps 747 mmHg 82%
    22:00 +11°C° 0 mm 8 mps 747 mmHg 82%
    23:00 +11°C° 0 mm 8 mps 747 mmHg 82%

    Day after tomorrow, 22 November, Wednesday

    Time Temperature Precipitation Wind Pressure Humidity
    00:00 +11°C° 0 mm 8 mps 746 mmHg 83%
    01:00 +12°C° 0 mm 8 mps 746 mmHg 83%
    02:00 +12°C° 0 mm 8 mps 746 mmHg 83%
    03:00 +12°C° 0 mm 8 mps 746 mmHg 83%
    04:00 +12°C° 0 mm 7 mps 745 mmHg 83%
    05:00 +12°C° 0 mm 7 mps 745 mmHg 84%
    06:00 +12°C° 0 mm 7 mps 744 mmHg 84%
    07:00 +12°C° 0 mm 8 mps 744 mmHg 81%
    08:00 +12°C° 0 mm 8 mps 744 mmHg 77%
    09:00 +12°C° 0 mm 8 mps 744 mmHg 74%
    10:00 +12°C° 0 mm 9 mps 743 mmHg 71%
    11:00 +13°C° 0 mm 10 mps 742 mmHg 68%
    12:00 +13°C° 0 mm 11 mps 742 mmHg 65%
    13:00 +13°C° 0.2 mm 11 mps 741 mmHg 66%
    14:00 +13°C° 0.2 mm 11 mps 740 mmHg 66%
    15:00 +13°C° 0.2 mm 11 mps 739 mmHg 66%
    16:00 +13°C° 0.2 mm 11 mps 739 mmHg 71%
    17:00 +13°C° 0.2 mm 11 mps 738 mmHg 75%
    18:00 +13°C° 0.2 mm 11 mps 738 mmHg 79%
    19:00 +13°C° 0.5 mm 11 mps 738 mmHg 79%
    20:00 +13°C° 0.5 mm 11 mps 738 mmHg 79%
    21:00 +13°C° 0.5 mm 12 mps 738 mmHg 79%
    22:00 +13°C° 0.1 mm 11 mps 738 mmHg 79%
    23:00 +13°C° 0.1 mm 11 mps 739 mmHg 79%

    23 November, Thursday

    Time Temperature Precipitation Wind Pressure Humidity
    00:00 +12°C° 0.1 mm 10 mps 739 mmHg 80%
    01:00 +12°C° 0 mm 10 mps 740 mmHg 81%
    02:00 +12°C° 0 mm 9 mps 741 mmHg 81%
    03:00 +12°C° 0 mm 9 mps 742 mmHg 82%
    04:00 +12°C° 0 mm 8 mps 743 mmHg 84%
    05:00 +12°C° 0 mm 8 mps 743 mmHg 85%
    06:00 +12°C° 0 mm 7 mps 744 mmHg 86%
    07:00 +12°C° 0 mm 7 mps 744 mmHg 86%
    08:00 +12°C° 0 mm 7 mps 745 mmHg 87%
    09:00 +12°C° 0 mm 7 mps 746 mmHg 87%
    10:00 +13°C° 0.1 mm 8 mps 746 mmHg 86%
    11:00 +13°C° 0.1 mm 8 mps 746 mmHg 85%
    12:00 +13°C° 0.1 mm 9 mps 746 mmHg 84%
    13:00 +13°C° 0.1 mm 9 mps 746 mmHg 83%
    14:00 +15°C° 0.1 mm 9 mps 746 mmHg 82%
    15:00 +15°C° 0.1 mm 9 mps 746 mmHg 81%
    16:00 +15°C° 0.2 mm 9 mps 746 mmHg 83%
    17:00 +13°C° 0.2 mm 9 mps 746 mmHg 84%
    18:00 +13°C° 0.2 mm 9 mps 746 mmHg 85%
    19:00 +13°C° 0.7 mm 10 mps 746 mmHg 84%
    20:00 +13°C° 0.7 mm 10 mps 746 mmHg 83%
    21:00 +13°C° 0.7 mm 11 mps 746 mmHg 82%
    22:00 +13°C° 0.4 mm 11 mps 746 mmHg 82%
    23:00 +13°C° 0.4 mm 11 mps 746 mmHg 82%

    24 November, Friday

    Time Temperature Precipitation Wind Pressure Humidity
    00:00 +13°C° 0.4 mm 11 mps 746 mmHg 82%
    01:00 +13°C° 0.7 mm 10 mps 746 mmHg 81%
    02:00 +13°C° 0.7 mm 10 mps 746 mmHg 81%
    03:00 +13°C° 0.7 mm 9 mps 745 mmHg 80%
    04:00 +13°C° 0.9 mm 9 mps 745 mmHg 79%
    05:00 +13°C° 0.9 mm 9 mps 745 mmHg 79%
    06:00 +12°C° 0.9 mm 9 mps 745 mmHg 78%
    07:00 +13°C° 1.1 mm 9 mps 745 mmHg 78%
    08:00 +13°C° 1.1 mm 10 mps 745 mmHg 78%
    09:00 +13°C° 1.1 mm 11 mps 745 mmHg 78%
    10:00 +13°C° 1.6 mm 10 mps 745 mmHg 79%
    11:00 +13°C° 1.6 mm 10 mps 745 mmHg 80%
    12:00 +13°C° 1.6 mm 9 mps 745 mmHg 81%
    13:00 +12°C° 1.5 mm 8 mps 745 mmHg 82%
    14:00 +11°C° 1.5 mm 7 mps 745 mmHg 83%
    15:00 +11°C° 1.5 mm 7 mps 745 mmHg 84%
    16:00 +11°C° 1.8 mm 6 mps 745 mmHg 85%
    17:00 +11°C° 1.8 mm 6 mps 745 mmHg 86%
    18:00 +10°C° 1.8 mm 6 mps 745 mmHg 88%
    19:00 +10°C° 1 mm 6 mps 744 mmHg 88%
    20:00 +10°C° 1 mm 5 mps 744 mmHg 89%
    21:00 +10°C° 1 mm 5 mps 744 mmHg 90%
    22:00 +10°C° 1.4 mm 5 mps 743 mmHg 90%
    23:00 +12°C° 1.4 mm 5 mps 743 mmHg 91%

    25 November, Saturday

    Time Temperature Precipitation Wind Pressure Humidity
    00:00 +11°C° 1.4 mm 6 mps 743 mmHg 92%
    01:00 +10°C° 2.3 mm 5 mps 742 mmHg 91%
    02:00 +10°C° 2.3 mm 5 mps 741 mmHg 91%
    03:00 +10°C° 2.3 mm 5 mps 740 mmHg 90%
    04:00 +10°C° 0.9 mm 6 mps 740 mmHg 89%
    05:00 +10°C° 0.9 mm 7 mps 739 mmHg 88%
    06:00 +10°C° 0.9 mm 8 mps 739 mmHg 87%
    07:00 +10°C° 0.2 mm 8 mps 739 mmHg 83%
    08:00 +9°C° 0.2 mm 8 mps 739 mmHg 79%
    09:00 +8°C° 0.2 mm 9 mps 739 mmHg 75%
    10:00 +8°C° 0.1 mm 9 mps 740 mmHg 75%
    11:00 +9°C° 0.1 mm 8 mps 740 mmHg 75%
    12:00 +9°C° 0.1 mm 8 mps 741 mmHg 75%
    13:00 +7°C° 0.1 mm 8 mps 743 mmHg 76%
    14:00 +6°C° 0.1 mm 7 mps 744 mmHg 76%
    15:00 +5°C° 0.1 mm 7 mps 746 mmHg 76%
    16:00 +4°C° 0 mm 6 mps 748 mmHg 77%
    17:00 +5°C° 0 mm 5 mps 750 mmHg 77%
    18:00 +4°C° 0 mm 4 mps 752 mmHg 78%
    19:00 +4°C° 0 mm 3 mps 753 mmHg 79%
    20:00 +3°C° 0 mm 3 mps 754 mmHg 79%
    21:00 +4°C° 0 mm 2 mps 755 mmHg 80%
    22:00 +4°C° 0 mm 2 mps 755 mmHg 80%
    23:00 +4°C° 0 mm 2 mps 755 mmHg 79%
    Show more